# From MPC 24219 1 Ceres,e,10.5828,80.4233,73.7289,2.767302,0.2141013,0.08008871,43.7797,01/30.0/2005,2000,H 3.34,0.12 # From MPC 24084 2 Pallas,e,34.8508,173.1660,310.5449,2.773237,0.2134143,0.23022200,28.7017,01/30.0/2005,2000,H 4.13,0.11 # From MPC 24084 3 Juno,e,12.9717,170.1268,247.8621,2.668151,0.2261458,0.25840154,300.2499,01/30.0/2005,2000,H 5.33,0.32 # From MPO 41498 5 Astraea,e,5.3697,141.6887,357.5267,2.572692,0.2388484,0.19314248,122.7945,01/30.0/2005,2000,H 6.85,0.15 # From MPC 24219 6 Hebe,e,14.7552,138.8177,239.2426,2.426997,0.2606756,0.20106808,169.9484,01/30.0/2005,2000,H 5.71,0.24 # From MPC 24084 7 Iris,e,5.5260,259.7302,145.4282,2.385546,0.2674992,0.23101659,189.2553,01/30.0/2005,2000,H 5.51,0.15 # From MPO 25662 8 Flora,e,5.8870,111.0327,284.9552,2.201172,0.3018026,0.15633069,66.0440,01/30.0/2005,2000,H 6.49,0.28 # From MPC 35055 10 Hygiea,e,3.8396,283.5905,313.2368,3.139671,0.1771650,0.11919259,309.5890,01/30.0/2005,2000,H 5.43,0.15 # From MPC 24085 11 Parthenope,e,4.6243,125.6364,195.4116,2.452792,0.2565743,0.09984888,24.9009,01/30.0/2005,2000,H 6.55,0.15 # From MPO 2601 13 Egeria,e,16.5400,43.2996,81.4585,2.576476,0.2383224,0.08487351,27.4148,01/30.0/2005,2000,H 6.74,0.15 # From MPO 595 14 Irene,e,9.1060,86.4721,96.3960,2.585669,0.2370526,0.16853918,13.9785,01/30.0/2005,2000,H 6.30,0.15 # From MPO 25662 15 Eunomia,e,11.7310,293.3496,97.6643,2.645700,0.2290304,0.18617544,171.6631,01/30.0/2005,2000,H 5.28,0.23 # From MPC 35055 16 Psyche,e,3.0954,150.3521,228.0215,2.920729,0.1974546,0.13952920,343.1450,01/30.0/2005,2000,H 5.90,0.20 # From MPO 53552 18 Melpomene,e,10.1256,150.5413,228.0030,2.295426,0.2834061,0.21845205,233.5603,01/30.0/2005,2000,H 6.51,0.25 # From MPO 53552 19 Fortuna,e,1.5732,211.3748,182.0660,2.441647,0.2583329,0.15936425,294.2619,01/30.0/2005,2000,H 7.13,0.10 # From MPO 25662 20 Massalia,e,0.7067,206.5218,255.5797,2.408641,0.2636611,0.14315633,188.0170,01/30.0/2005,2000,H 6.50,0.25 # From MPO 53552 22 Kalliope,e,13.7105,66.2455,356.3127,2.908235,0.1987283,0.10287639,243.7955,01/30.0/2005,2000,H 6.45,0.21 # From MPO 4876 23 Thalia,e,10.1445,67.2365,59.3062,2.627512,0.2314126,0.23329130,213.0113,01/30.0/2005,2000,H 6.95,0.15 # From MPO 50329 26 Proserpina,e,3.5623,45.8845,192.9207,2.655735,0.2277335,0.08702742,1.9418,01/30.0/2005,2000,H 7.5,0.15 # From MPO 50329 28 Bellona,e,9.4012,144.5139,342.4849,2.778942,0.2127575,0.14857137,247.6732,01/30.0/2005,2000,H 7.09,0.15 # From MPO 57621 29 Amphitrite,e,6.1011,356.5442,63.0073,2.555849,0.2412133,0.07146223,109.4631,01/30.0/2005,2000,H 5.85,0.20 # From MPC 31001 37 Fides,e,3.0738,7.4131,62.8127,2.640694,0.2296820,0.17677090,228.4674,01/30.0/2005,2000,H 7.29,0.24 # From MPC 30777 39 Laetitia,e,10.3842,157.1740,209.6790,2.767700,0.2140550,0.11388526,268.3502,01/30.0/2005,2000,H 6.1,0.15 # From MPO 9657 42 Isis,e,8.5290,84.4031,236.6034,2.441696,0.2583251,0.22257411,301.0841,01/30.0/2005,2000,H 7.53,0.15 # From MPC 25032 43 Ariadne,e,3.4674,264.9452,15.9117,2.203227,0.3013806,0.16766496,11.2138,01/30.0/2005,2000,H 7.93,0.11 # From MPO 3854 44 Nysa,e,3.7030,131.6093,342.5008,2.423039,0.2613145,0.14885517,165.2506,01/30.0/2005,2000,H 7.03,0.46 # From MPO 41498 45 Eugenia,e,6.6100,147.9499,85.1476,2.721327,0.2195497,0.08259687,339.3347,01/30.0/2005,2000,H 7.46,0.07 # From MPC 31001 51 Nemausa,e,9.9722,176.1758,2.5391,2.365547,0.2708986,0.06667277,127.3588,01/30.0/2005,2000,H 7.35,0.08 # From MPC 24371 52 Europa,e,7.4690,129.0188,343.1833,3.098346,0.1807212,0.10136628,16.8994,01/30.0/2005,2000,H 6.31,0.18 # From MPO 31791 54 Alexandra,e,11.8048,313.4622,345.4795,2.711945,0.2206901,0.19628373,309.4233,01/30.0/2005,2000,H 7.66,0.15 # From MPO 14338 55 Pandora,e,7.1852,10.5474,4.3928,2.758926,0.2150770,0.14472672,324.2810,01/30.0/2005,2000,H 7.8,0.15 # From MPO 20668 57 Mnemosyne,e,15.2002,199.3442,213.0431,3.149984,0.1762957,0.11848601,304.4050,01/30.0/2005,2000,H 7.03,0.15 # From MPC 27692 60 Echo,e,3.6019,191.8056,270.3824,2.393863,0.2661064,0.18226227,264.8666,01/30.0/2005,2000,H 8.21,0.27 # From MPC 26379 67 Asia,e,6.0270,202.7283,106.3224,2.421371,0.2615845,0.18453456,359.0754,01/30.0/2005,2000,H 8.28,0.15 # From MPO 57621 68 Leto,e,7.9697,44.1828,305.1214,2.784566,0.2121133,0.18498141,236.2542,01/30.0/2005,2000,H 6.78,0.05 # From MPC 27086 69 Hesperia,e,8.5888,185.1798,290.0135,2.980286,0.1915655,0.16498521,22.6452,01/30.0/2005,2000,H 7.05,0.19 # From MPO 2601 70 Panopaea,e,11.5841,47.8055,255.7582,2.616205,0.2329145,0.18109846,298.3343,01/30.0/2005,2000,H 8.11,0.14 # From MPO 53552 72 Feronia,e,5.4173,208.1411,102.5578,2.266082,0.2889286,0.12025787,304.7739,01/30.0/2005,2000,H 8.94,0.15 # From MPC 31001 88 Thisbe,e,5.2176,276.7781,36.6322,2.768044,0.2140151,0.16435632,15.6170,01/30.0/2005,2000,H 7.04,0.14 # From MPC 30777 89 Julia,e,16.1405,311.6588,45.0824,2.550103,0.2420291,0.18362033,319.6659,01/30.0/2005,2000,H 6.60,0.15 # From MPO 2601 92 Undina,e,9.9207,101.8436,242.3593,3.190446,0.1729525,0.10023889,356.1085,01/30.0/2005,2000,H 6.61,0.15 # From MPO 50329 101 Helena,e,10.2002,343.4830,347.8646,2.582488,0.2374907,0.14121747,319.3561,01/30.0/2005,2000,H 8.33,0.35 # From MPO 8362 103 Hera,e,5.4214,136.2846,189.9734,2.702189,0.2218863,0.07925518,279.6885,01/30.0/2005,2000,H 7.66,0.15 # From MPO 2601 115 Thyra,e,11.6001,309.1407,96.2504,2.379744,0.2684780,0.19153645,61.4276,01/30.0/2005,2000,H 7.51,0.12 # From MPO 2601 129 Antigone,e,12.2193,136.4570,108.0968,2.868609,0.2028603,0.21329660,328.6247,01/30.0/2005,2000,H 7.07,0.33 # From MPC 22665 144 Vibilia,e,4.8083,76.4894,293.6847,2.653850,0.2279762,0.23529802,263.3593,01/30.0/2005,2000,H 7.91,0.17 # From MPC 31001 216 Kleopatra,e,13.1356,215.6722,179.0992,2.792796,0.2111763,0.25192244,55.2595,01/30.0/2005,2000,H 7.30,0.29 # From MPC 31001 349 Dembowska,e,8.2563,32.5002,347.1708,2.926592,0.1968615,0.08695188,198.1478,01/30.0/2005,2000,H 5.93,0.37 # From MPO 50329 386 Siegena,e,20.2554,166.9506,220.2542,2.894625,0.2001316,0.17292841,305.6634,01/30.0/2005,2000,H 7.43,0.16 # From MPO 57621 409 Aspasia,e,11.2414,242.3702,352.3303,2.576850,0.2382705,0.07110332,340.5237,01/30.0/2005,2000,H 7.62,0.29 # From MPC 31001 471 Papagena,e,14.9851,84.1032,314.5615,2.885701,0.2010607,0.23350845,282.2324,01/30.0/2005,2000,H 6.73,0.37 # From MPC 31002 532 Herculina,e,16.3093,107.6416,76.9712,2.770704,0.2137071,0.17831872,312.9851,01/30.0/2005,2000,H 5.81,0.26 # From MPO 12096 675 Ludmilla,e,9.8016,263.4393,152.0301,2.767914,0.2140302,0.20438036,281.3172,01/30.0/2005,2000,H 7.91,0.15 # From MPC 31002 704 Interamnia,e,17.2872,280.4079,95.6987,3.062143,0.1839356,0.14924707,222.4573,01/30.0/2005,2000,H 5.94,-0.02 # From MPO 33740 712 Boliviana,e,12.7807,231.0523,181.2354,2.574335,0.2386198,0.18829632,297.6428,01/30.0/2005,2000,H 8.32,0.03